FW7382 Weather Reports


Display with metric or nautical units.
time (UTC)temp
F
wind
direction
speed
MPH
gust
MPH
rain 1hr
in
rain 24hr
in
rain mn
in
humidity
%
barometer
mb
20260505194019 55 0.0 0.0 0.00 0.07 0.06 87 1008.8
20260505193039 55 0.0 0.0 0.00 0.07 0.06 87 1008.7
20260505192016 55 0.0 0.0 0.00 0.07 0.06 86 1008.6
20260505191016 55 0.0 0.0 0.00 0.07 0.06 86 1008.5
20260505190016 56 0.0 0.0 0.01 0.07 0.06 85 1008.4
20260505185016 56 0.0 0.0 0.01 0.07 0.06 84 1008.3
20260505184016 56 0.0 0.0 0.01 0.07 0.06 85 1008.1
20260505183016 57 0.0 0.0 0.01 0.07 0.06 86 1008.2
20260505182036 57 0.0 0.0 0.01 0.07 0.06 85 1008.2
20260505181018 58 0.0 0.0 0.01 0.07 0.06 83 1008.5
20260505180016 59 0.0 0.0 0.00 0.06 0.06 81 1008.5
20260505175056 59 0.0 0.0 0.00 0.06 0.06 79 1008.1
20260505174016 59 0.0 0.0 0.00 0.06 0.06 79 1008.1
20260505173016 59 0.0 0.0 0.00 0.07 0.06 81 1008.0
20260505172017 60 0.0 0.0 0.00 0.07 0.06 80 1008.2
20260505171016 60 0.0 0.0 0.00 0.07 0.06 78 1008.1
20260505170036 60 0.0 0.0 0.00 0.07 0.06 78 1007.9
20260505165016 60 0.0 0.0 0.00 0.07 0.06 79 1008.1
20260505164036 60 0.0 0.0 0.00 0.07 0.06 80 1008.0
20260505163016 60 0.0 0.0 0.00 0.08 0.06 78 1008.0
20260505162116 60 0.0 0.0 0.00 0.08 0.06 78 1008.0
20260505161016 60 0.0 0.0 0.00 0.08 0.06 80 1007.9
20260505153016 57 0.0 0.0 0.02 0.08 0.06 88 1008.1
20260505152017 57 0.0 0.0 0.03 0.08 0.06 88 1007.9
20260505151015 57 0.0 0.0 0.04 0.08 0.06 87 1007.8
20260505125036 59 0.0 0.0 0.00 0.04 0.02 87 1008.3
20260505124018 59 0.0 0.0 0.01 0.04 0.02 87 1008.2
20260505123016 59 0.0 0.0 0.01 0.04 0.02 88 1008.4
20260505122055 59 0.0 0.0 0.01 0.04 0.02 88 1008.5
20260505121016 59 0.0 0.0 0.02 0.04 0.02 87 1008.5
20260505120015 59 0.0 0.0 0.02 0.04 0.02 87 1008.6
20260505115015 59 0.0 0.0 0.02 0.04 0.02 86 1008.5
20260505114015 59 0.0 0.0 0.01 0.03 0.01 86 1008.7
20260505113015 59 0.0 0.0 0.01 0.03 0.01 86 1008.8
20260505112015 59 0.0 0.0 0.01 0.03 0.01 86 1008.9
20260505111015 59 0.0 0.0 0.00 0.02 0.00 86 1008.9
20260505102037 58 0.0 0.0 0.00 0.02 0.00 86 1008.9
20260505101037 58 0.0 0.0 0.00 0.02 0.00 86 1009.0
20260505100017 58 0.0 0.0 0.00 0.02 0.00 86 1008.9
20260505095057 58 0.0 0.0 0.00 0.02 0.00 86 1008.9
20260505094058 58 0.0 0.0 0.00 0.02 0.00 86 1008.8
20260505093017 58 0.0 0.0 0.00 0.02 0.00 85 1008.8
20260505092057 58 0.0 0.0 0.00 0.02 0.00 85 1008.9
20260505091017 58 0.0 0.0 0.00 0.02 0.00 85 1009.1
20260505085017 58 0.0 0.0 0.00 0.02 0.00 83 1009.2
20260505084057 58 0.0 0.0 0.00 0.02 0.00 83 1009.3
20260505083037 58 0.0 0.0 0.00 0.02 0.00 84 1009.4
20260505082037 58 0.0 0.0 0.00 0.02 0.00 85 1009.4
20260505081037 57 0.0 0.0 0.00 0.02 0.00 86 1009.4
20260505080017 57 0.0 0.0 0.00 0.02 0.00 88 1009.5
20260505075017 57 0.0 0.0 0.00 0.02 0.00 89 1009.5
20260505074057 56 0.0 0.0 0.00 0.02 0.00 90 1009.5
20260505073037 56 0.0 0.0 0.00 0.02 0.00 90 1009.7
20260505072037 56 0.0 0.0 0.00 0.02 0.00 90 1009.5
20260505071017 55 0.0 0.0 0.00 0.02 0.00 91 1009.5
20260505070017 55 0.0 0.0 0.00 0.02 0.00 91 1009.7
20260505065100 55 0.0 0.0 0.00 0.02 0.00 91 1009.7
20260505064017 55 0.0 0.0 0.00 0.02 0.00 91 1009.8
20260505063017 54 0.0 0.0 0.00 0.02 0.00 91 1009.7
20260505062040 54 0.0 0.0 0.00 0.02 0.00 91 1009.9
20260505061017 54 0.0 0.0 0.00 0.02 0.00 90 1010.0
20260505060016 54 0.0 0.0 0.00 0.02 0.00 90 1010.0
20260505055057 54 0.0 0.0 0.00 0.02 0.00 89 1010.0
20260505054017 54 0.0 0.0 0.00 0.02 0.00 89 1010.0
20260505053017 54 0.0 0.0 0.00 0.02 0.00 89 1010.0
20260505052017 54 0.0 0.0 0.00 0.02 0.00 89 1009.9
20260505051037 54 0.0 0.0 0.00 0.02 0.00 88 1009.8
20260505041037 54 0.0 0.0 0.00 0.02 0.00 86 1009.7
20260505040036 53 0.0 0.0 0.00 0.02 0.00 86 1009.8
20260505035039 53 0.0 0.0 0.00 0.02 0.00 86 1009.9
20260505034200 53 0.0 0.0 0.00 0.02 0.00 88 1009.8
20260505033016 53 0.0 0.0 0.00 0.02 0.00 88 1009.9
20260505032016 53 0.0 0.0 0.00 0.02 0.00 88 1009.9
20260505031016 53 0.0 0.0 0.00 0.02 0.00 87 1010.1
20260505030036 53 0.0 0.0 0.00 0.02 0.00 87 1010.2
20260505025016 53 0.0 0.0 0.00 0.02 0.00 87 1010.3
20260505024039 53 0.0 0.0 0.00 0.02 0.00 86 1010.3
20260505022039 53 0.0 0.0 0.00 0.02 0.00 86 1010.6
20260505021016 53 0.0 0.0 0.00 0.02 0.00 86 1010.7
20260505020019 53 0.0 0.0 0.00 0.02 0.00 86 1010.8
20260505014037 54 0.0 0.0 0.00 0.02 0.00 84 1010.9
20260505013039 54 0.0 0.0 0.00 0.02 0.00 83 1011.2
20260505012036 54 0.0 0.0 0.00 0.02 0.00 84 1011.1
20260505011018 54 0.0 0.0 0.00 0.02 0.00 84 1011.2
20260505010016 54 0.0 0.0 0.00 0.02 0.00 83 1011.3
20260505005036 54 0.0 0.0 0.00 0.02 0.00 84 1011.4
20260505004016 54 0.0 0.0 0.00 0.02 0.00 85 1011.7
20260505003016 54 0.0 0.0 0.00 0.02 0.00 86 1011.6
20260505002017 54 0.0 0.0 0.00 0.02 0.00 86 1011.8
20260505001059 54 0.0 0.0 0.00 0.02 0.00 87 1011.9
20260505000036 54 0.0 0.0 0.00 0.02 0.02 88 1012.1
20260504235035 54 0.0 0.0 0.00 0.02 0.02 89 1012.2
20260504234015 54 0.0 0.0 0.00 0.02 0.02 89 1012.3
20260504233038 54 0.0 0.0 0.00 0.02 0.02 89 1012.3
20260504232017 54 0.0 0.0 0.00 0.02 0.02 88 1012.3
20260504231057 54 0.0 0.0 0.00 0.02 0.02 89 1012.5
20260504230037 54 0.0 0.0 0.00 0.02 0.02 88 1012.5
20260504225018 53 0.0 0.0 0.00 0.02 0.02 88 1012.5
20260504224017 54 0.0 0.0 0.00 0.02 0.02 88 1012.6
20260504223120 54 0.0 0.0 0.00 0.02 0.02 88 1012.5
20260504222017 54 0.0 0.0 0.00 0.02 0.02 88 1012.5
20260504221037 54 0.0 0.0 0.00 0.02 0.02 89 1012.4
20260504220120 54 0.0 0.0 0.00 0.02 0.02 89 1012.5
20260504215040 55 0.0 0.0 0.00 0.02 0.02 89 1012.7
20260504214120 55 0.0 0.0 0.00 0.02 0.02 90 1012.8
20260504213016 55 0.0 0.0 0.01 0.02 0.02 90 1013.1
20260504212140 55 0.0 0.0 0.01 0.02 0.02 90 1013.2
20260504211017 55 0.0 0.0 0.01 0.02 0.02 90 1013.2
20260504210017 55 0.0 0.0 0.01 0.02 0.02 90 1013.3
20260504205037 55 0.0 0.0 0.01 0.02 0.02 90 1013.2
20260504204017 55 0.0 0.0 0.01 0.02 0.02 90 1013.2
20260504203017 55 0.0 0.0 0.00 0.02 0.02 89 1013.2
20260504202037 55 0.0 0.0 0.00 0.02 0.02 89 1013.3
20260504201017 55 0.0 0.0 0.00 0.02 0.02 89 1013.3
20260504200017 55 0.0 0.0 0.00 0.02 0.02 89 1013.1
20260504195057 55 0.0 0.0 0.00 0.02 0.02 89 1013.1